Weather History for Hearne, TX

Change the Weather History Date:

Saturday, November 10, 2012

  Actual Average (KCLL) Record (KCLL)
Temperature  
Mean Temperature 70 °F 63 °F  
Max Temperature 80 °F 73 °F 87 °F (1911)
Min Temperature 59 °F 53 °F 33 °F (1948)
Degree Days  
Heating Degree Days 0 5  
Month to date heating degree days 38  
Since 1 July heating degree days 75  
Cooling Degree Days 4 3  
Month to date cooling degree days 33  
Year to date cooling degree days 3045  
Growing Degree Days 20 (Base 50)    
Moisture  
Dew Point 58 °F    
Average Humidity 66    
Maximum Humidity 94    
Minimum Humidity 42    
Precipitation  
Precipitation 0.00 in 0.11 in 0.40 in (1985)
Month to date precipitation 1.13  
Year to date precipitation 34.74  
Sea Level Pressure  
Sea Level Pressure 29.97 in    
Wind  
Wind Speed 11 mph (SSE)    
Max Wind Speed 21 mph    
Max Gust Speed 30 mph    
Visibility 10 miles    
Events      
T = Trace of Precipitation, MM = Missing Value Source: NWS Daily Summary

Daily Weather History Graph

Daily Weather History Graph

Search for Another Location

Airport:

Trip Planner

Search our weather history database for the weather conditions in past years. The results will help you decide how hot, cold, wet, or windy it might be!

Date:

Astronomy

Nov. 10, 2012 Rise Set
Actual Time 6:49 AM CST 5:31 PM CST
Civil Twilight 6:23 AM CST 5:56 PM CST
Nautical Twilight 5:55 AM CST 6:25 PM CST
Astronomical Twilight 5:26 AM CST 6:54 PM CST
Moon 3:08 AM CST (11/10) 3:07 PM CST (11/10)
Length of Visible Light 11h 32m
Length of Day
10h 41m
Waning Crescent, 14% of the Moon is Illuminated
Nov 10
Waning Crescent
Nov 13
New
Nov 20
First Quarter
Nov 28
Full
Dec 6
Last Quarter

Hourly Weather History & Observations

Time (CST) Temp. Heat Index Dew Point Humidity Pressure Visibility Wind Dir Wind Speed Gust Speed Precip Events Conditions
4:15 AM 60.8 °F - 59.0 °F 94% 30.01 in 10.0 mi SE 9.2 mph - N/A   Scattered Clouds
4:35 AM 60.8 °F - 57.2 °F 88% 30.01 in 10.0 mi SE 8.1 mph - N/A   Scattered Clouds
4:55 AM 60.8 °F - 57.2 °F 88% 30.03 in 10.0 mi SE 8.1 mph - N/A   Clear
5:15 AM 60.8 °F - 57.2 °F 88% 30.03 in 10.0 mi SSE 6.9 mph - N/A   Clear
5:35 AM 60.8 °F - 57.2 °F 88% 30.03 in 10.0 mi SSE 5.8 mph - N/A   Clear
5:55 AM 60.8 °F - 57.2 °F 88% 30.03 in 10.0 mi SE 6.9 mph - N/A   Clear
6:15 AM 60.8 °F - 57.2 °F 88% 30.03 in 10.0 mi Calm Calm - N/A   Scattered Clouds
6:35 AM 59.0 °F - 57.2 °F 94% 30.03 in 10.0 mi Calm Calm - N/A   Scattered Clouds
6:55 AM 59.0 °F - 57.2 °F 94% 30.03 in 10.0 mi Calm Calm - N/A   Clear
7:15 AM 60.8 °F - 57.2 °F 88% 30.03 in 10.0 mi SE 6.9 mph - N/A   Scattered Clouds
7:55 AM 60.8 °F - 57.2 °F 88% 30.05 in 10.0 mi SSE 5.8 mph - N/A   Clear
8:15 AM 62.6 °F - 59.0 °F 88% 30.05 in 10.0 mi SSE 8.1 mph - N/A   Scattered Clouds
8:35 AM 64.4 °F - 59.0 °F 83% 30.05 in 10.0 mi SSE 9.2 mph - N/A   Scattered Clouds
8:55 AM 66.2 °F - 59.0 °F 78% 30.06 in 10.0 mi SSE 12.7 mph 19.6 mph N/A   Scattered Clouds
9:15 AM 69.8 °F - 59.0 °F 68% 30.06 in 10.0 mi SSE 13.8 mph 18.4 mph N/A   Scattered Clouds
9:35 AM 69.8 °F - 59.0 °F 68% 30.06 in 10.0 mi SSE 16.1 mph - N/A   Scattered Clouds
9:55 AM 73.4 °F - 59.0 °F 61% 30.05 in 10.0 mi SSE 16.1 mph 19.6 mph N/A   Scattered Clouds
10:15 AM 73.4 °F - 59.0 °F 61% 30.05 in 10.0 mi SSE 16.1 mph 23.0 mph N/A   Clear
10:35 AM 75.2 °F - 59.0 °F 57% 30.04 in 10.0 mi SE 13.8 mph 24.2 mph N/A   Clear
10:55 AM 75.2 °F - 59.0 °F 57% 30.03 in 10.0 mi SSE 15.0 mph 25.3 mph N/A   Scattered Clouds
11:15 AM 77.0 °F - 59.0 °F 54% 30.03 in 10.0 mi SSE 17.3 mph 25.3 mph N/A   Scattered Clouds
11:35 AM 77.0 °F - 57.2 °F 50% 30.02 in 10.0 mi South 20.7 mph 25.3 mph N/A   Scattered Clouds
11:55 AM 77.0 °F - 57.2 °F 50% 30.01 in 10.0 mi South 16.1 mph 28.8 mph N/A   Mostly Cloudy
12:15 PM 77.0 °F - 57.2 °F 50% 29.99 in 10.0 mi South 17.3 mph 26.5 mph N/A   Mostly Cloudy
12:35 PM 78.8 °F - 57.2 °F 47% 29.98 in 10.0 mi SSE 18.4 mph 24.2 mph N/A   Mostly Cloudy
12:55 PM 78.8 °F - 55.4 °F 44% 29.98 in 10.0 mi South 19.6 mph 26.5 mph N/A   Scattered Clouds
1:15 PM 78.8 °F - 55.4 °F 44% 29.96 in 10.0 mi SSE 15.0 mph 23.0 mph N/A   Scattered Clouds
1:35 PM 78.8 °F - 55.4 °F 44% 29.96 in 10.0 mi SSE 13.8 mph 26.5 mph N/A   Scattered Clouds
1:55 PM 78.8 °F - 55.4 °F 44% 29.95 in 10.0 mi SSE 15.0 mph 21.9 mph N/A   Scattered Clouds
2:15 PM 80.6 °F 80.5 °F 55.4 °F 42% 29.93 in 10.0 mi SSE 12.7 mph - N/A   Scattered Clouds
2:35 PM 80.6 °F 80.5 °F 55.4 °F 42% 29.92 in 10.0 mi SSE 15.0 mph 25.3 mph N/A   Scattered Clouds
2:55 PM 80.6 °F 80.5 °F 55.4 °F 42% 29.92 in 10.0 mi SSE 19.6 mph 29.9 mph N/A   Scattered Clouds
3:15 PM 78.8 °F - 55.4 °F 44% 29.92 in 10.0 mi SSE 16.1 mph 25.3 mph N/A   Scattered Clouds
3:35 PM 78.8 °F - 53.6 °F 42% 29.92 in 10.0 mi South 19.6 mph 26.5 mph N/A   Scattered Clouds
3:55 PM 78.8 °F - 55.4 °F 44% 29.92 in 10.0 mi SSE 15.0 mph 25.3 mph N/A   Clear
4:15 PM 77.0 °F - 55.4 °F 47% 29.92 in 10.0 mi SSE 12.7 mph 24.2 mph N/A   Clear
4:35 PM 77.0 °F - 55.4 °F 47% 29.91 in 10.0 mi SSE 18.4 mph 26.5 mph N/A   Clear
4:55 PM 77.0 °F - 57.2 °F 50% 29.91 in 10.0 mi SSE 15.0 mph - N/A   Scattered Clouds
5:15 PM 77.0 °F - 59.0 °F 54% 29.91 in 10.0 mi SSE 11.5 mph - N/A   Mostly Cloudy
5:55 PM 73.4 °F - 59.0 °F 61% 29.92 in 10.0 mi SSE 12.7 mph 21.9 mph N/A   Clear
6:15 PM 73.4 °F - 60.8 °F 65% 29.93 in 10.0 mi SE 9.2 mph - N/A   Scattered Clouds
6:35 PM 73.4 °F - 60.8 °F 65% 29.93 in 10.0 mi SE 9.2 mph - N/A   Scattered Clouds
6:55 PM 73.4 °F - 59.0 °F 61% 29.93 in 10.0 mi SE 11.5 mph 18.4 mph N/A   Clear
7:15 PM 71.6 °F - 59.0 °F 64% 29.93 in 10.0 mi SE 10.4 mph - N/A   Clear
7:35 PM 71.6 °F - 59.0 °F 64% 29.94 in 10.0 mi SSE 10.4 mph 16.1 mph N/A   Clear
7:55 PM 71.6 °F - 57.2 °F 60% 29.93 in 10.0 mi SSE 9.2 mph 17.3 mph N/A   Clear
8:15 PM 71.6 °F - 59.0 °F 64% 29.93 in 10.0 mi SSE 11.5 mph - N/A   Clear
8:35 PM 71.6 °F - 59.0 °F 64% 29.93 in 10.0 mi SE 13.8 mph 18.4 mph N/A   Clear
8:55 PM 71.6 °F - 60.8 °F 69% 29.93 in 10.0 mi SSE 13.8 mph 20.7 mph N/A   Scattered Clouds
9:15 PM 71.6 °F - 60.8 °F 69% 29.93 in 10.0 mi SSE 12.7 mph 19.6 mph N/A   Scattered Clouds
9:35 PM 71.6 °F - 60.8 °F 69% 29.94 in 10.0 mi SSE 11.5 mph 20.7 mph N/A   Clear
9:55 PM 69.8 °F - 62.6 °F 78% 29.93 in 10.0 mi SSE 15.0 mph 21.9 mph N/A   Clear
10:15 PM 69.8 °F - 62.6 °F 78% 29.94 in 10.0 mi SSE 15.0 mph 21.9 mph N/A   Scattered Clouds
10:35 PM 69.8 °F - 62.6 °F 78% 29.93 in 10.0 mi SSE 16.1 mph 20.7 mph N/A   Scattered Clouds
10:55 PM 69.8 °F - 62.6 °F 78% 29.93 in 10.0 mi SSE 13.8 mph 21.9 mph N/A   Mostly Cloudy
11:15 PM 69.8 °F - 62.6 °F 78% 29.92 in 10.0 mi SE 12.7 mph 18.4 mph N/A   Scattered Clouds
11:35 PM 69.8 °F - 62.6 °F 78% 29.91 in 10.0 mi SE 11.5 mph 17.3 mph N/A   Scattered Clouds
11:55 PM 69.8 °F - 62.6 °F 78% 29.91 in 10.0 mi SSE 12.7 mph - N/A   Scattered Clouds